PI1GDA-1 Weather Reports


time (UTC)temp
C
wind
direction
speed
KPH
gust
KPH
rain 1hr
cm
rain 24hr
cm
rain mn
cm
humidity
%
barometer
mb
20260506033646 10 45 6.4 19.3 0.00 0.00 0.00 84 1009.3
20260506032645 10 45 6.4 19.3 0.00 0.00 0.00 84 1009.4
20260506031644 10 22 6.4 19.3 0.00 0.00 0.00 84 1009.4
20260506030643 10 68 6.4 19.3 0.00 0.00 0.00 84 1009.4
20260506025642 10 22 4.8 19.3 0.00 0.00 0.00 84 1009.5
20260506024642 10 22 6.4 19.3 0.00 0.00 0.00 84 1009.5
20260506023640 10 45 4.8 19.3 0.00 0.00 0.00 84 1009.6
20260506022640 10 0 6.4 19.3 0.00 0.00 0.00 84 1009.6
20260506021639 10 0 6.4 19.3 0.00 0.00 0.00 84 1009.6
20260506020638 10 338 6.4 19.3 0.00 0.00 0.00 84 1009.6
20260506015636 9 315 6.4 17.7 0.00 0.00 0.00 84 1009.6
20260506014634 9 22 6.4 17.7 0.00 0.00 0.00 84 1009.6
20260506013633 9 0 6.4 17.7 0.00 0.00 0.00 84 1009.7
20260506012633 10 22 4.8 17.7 0.00 0.00 0.00 84 1009.7
20260506011630 10 22 6.4 17.7 0.00 0.00 0.00 83 1009.7
20260506010629 10 315 6.4 17.7 0.00 0.00 0.00 84 1009.8
20260506005629 10 45 6.4 17.7 0.00 0.00 0.00 83 1009.9
20260506004627 10 338 6.4 17.7 0.00 0.00 0.00 83 1010.0
20260506003627 10 338 6.4 17.7 0.00 0.00 0.00 83 1010.0
20260506002626 10 338 6.4 17.7 0.00 0.00 0.00 83 1010.2
20260506001624 10 22 4.8 17.7 0.00 0.00 0.00 82 1010.4
20260506000624 10 0 6.4 17.7 0.00 0.00 0.00 82 1010.3
20260505235623 10 22 6.4 17.7 0.00 0.00 0.00 82 1010.3
20260505234622 10 45 4.8 17.7 0.00 0.00 0.00 82 1010.4
20260505233620 10 315 4.8 17.7 0.00 0.00 0.00 82 1010.4
20260505232620 10 0 4.8 17.7 0.00 0.00 0.00 82 1010.5
20260505231619 10 0 4.8 17.7 0.00 0.00 0.00 81 1010.7
20260505230619 10 22 4.8 16.1 0.00 0.00 0.00 81 1010.8
20260505225617 10 0 4.8 16.1 0.00 0.00 0.00 80 1010.8
20260505224617 10 338 4.8 16.1 0.00 0.00 0.00 80 1010.8
20260505223615 10 0 4.8 16.1 0.00 0.00 0.00 80 1011.0
20260505222614 10 22 4.8 16.1 0.00 0.00 0.00 79 1010.9
20260505221613 10 338 6.4 16.1 0.00 0.00 0.00 79 1011.0
20260505220613 10 315 8.0 11.3 0.00 0.00 0.00 79 1010.8
20260505215611 10 90 8.0 30.6 0.00 0.00 0.00 79 1010.9
20260505214610 10 0 6.4 30.6 0.00 0.00 0.00 78 1011.0
20260505213610 10 0 6.4 30.6 0.00 0.00 0.00 78 1011.2
20260505212609 10 0 8.0 30.6 0.00 0.00 0.00 78 1011.2
20260505211607 10 45 8.0 30.6 0.00 0.00 0.00 78 1011.2
20260505210607 10 0 9.7 30.6 0.00 0.00 0.00 78 1011.2
20260505205605 11 0 9.7 30.6 0.00 0.00 0.00 78 1011.3
20260505204604 11 22 6.4 30.6 0.00 0.00 0.00 79 1011.4
20260505203601 11 22 4.8 30.6 0.00 0.00 0.00 79 1011.4
20260505202559 11 0 4.8 30.6 0.00 0.00 0.00 79 1011.4
20260505201559 11 0 4.8 30.6 0.00 0.00 0.00 79 1011.3
20260505200557 11 338 6.4 30.6 0.00 0.00 0.00 79 1011.3
20260505195556 11 68 6.4 30.6 0.00 0.00 0.00 78 1011.3
20260505194556 11 338 8.0 30.6 0.00 0.00 0.00 78 1011.1
20260505193555 11 22 8.0 30.6 0.00 0.00 0.00 78 1011.0
20260505192555 11 45 8.0 30.6 0.00 0.00 0.00 78 1010.9
20260505191554 12 68 9.7 30.6 0.00 0.00 0.00 77 1010.8
20260505190554 12 22 8.0 30.6 0.00 0.00 0.00 77 1010.7
20260505185553 12 22 11.3 30.6 0.00 0.00 0.00 76 1010.6
20260505184553 12 90 9.7 30.6 0.00 0.00 0.00 75 1010.5
20260505183549 12 112 11.3 30.6 0.00 0.00 0.00 75 1010.4
20260505182549 12 68 9.7 30.6 0.00 0.00 0.00 74 1010.6
20260505181549 13 68 9.7 30.6 0.00 0.00 0.00 74 1010.5
20260505180548 13 0 11.3 30.6 0.00 0.00 0.00 74 1010.5
20260505175546 13 22 9.7 30.6 0.00 0.00 0.00 73 1010.5
20260505174546 13 22 11.3 30.6 0.00 0.00 0.00 72 1010.6
20260505173545 13 22 9.7 30.6 0.00 0.00 0.00 71 1010.5
20260505172544 14 45 9.7 30.6 0.00 0.00 0.00 70 1010.7
20260505171541 14 68 9.7 30.6 0.00 0.00 0.00 70 1010.6
20260505170540 14 45 11.3 30.6 0.00 0.00 0.00 70 1010.7
20260505165540 15 45 9.7 30.6 0.00 0.00 0.00 70 1010.7
20260505164539 15 45 9.7 30.6 0.00 0.00 0.00 69 1010.7
20260505163538 15 45 9.7 30.6 0.00 0.00 0.00 70 1010.7
20260505162537 15 45 11.3 30.6 0.00 0.00 0.00 69 1010.8
20260505161536 15 68 11.3 30.6 0.00 0.00 0.00 68 1010.9
20260505160536 15 68 9.7 30.6 0.00 0.00 0.00 67 1010.9
20260505152532 15 0 9.7 30.6 0.00 0.00 0.00 71 1010.9
20260505151531 15 68 9.7 30.6 0.00 0.00 0.00 68 1011.0
20260505150531 16 45 9.7 30.6 0.00 0.00 0.00 65 1011.0
20260505140525 15 45 9.7 30.6 0.00 0.00 0.00 67 1011.2
20260505124519 16 45 9.7 30.6 0.00 0.00 0.00 67 1011.7
20260505123519 15 45 9.7 30.6 0.00 0.00 0.00 69 1011.7
20260505122519 15 68 11.3 30.6 0.00 0.00 0.00 71 1011.7
20260505121518 15 68 11.3 30.6 0.00 0.00 0.00 71 1011.7
20260505120517 15 22 12.9 30.6 0.00 0.00 0.00 72 1011.8
20260505115517 15 90 11.3 27.4 0.00 0.00 0.00 71 1011.6
20260505114516 15 22 9.7 27.4 0.00 0.00 0.00 71 1011.7
20260505113515 14 112 9.7 27.4 0.00 0.00 0.00 72 1011.9
20260505112513 14 0 9.7 27.4 0.00 0.00 0.00 75 1012.0
20260505111511 14 45 9.7 27.4 0.00 0.00 0.00 75 1012.1
20260505110509 13 22 9.7 27.4 0.00 0.00 0.00 74 1012.1